This is the latest recevied weather packets stored in our database for station/object K5BV. If no packets are shown the sender has not sent any weather packets the latest 10 day(s).
| Time | Temp. | Humidity | Pressure | Rain* | Wind** | Luminosity | Snow |
|---|---|---|---|---|---|---|---|
| 1777833759 | 26.11° C | 51% | 1022.6 hPa | 0 mm | - | - | - |
| 1777833159 | 26.11° C | 50% | 1022.8 hPa | 0 mm | - | - | - |
| 1777832558 | 26.67° C | 51% | 1022.9 hPa | 0 mm | - | - | - |
| 1777831959 | 26.11° C | 53% | 1023.1 hPa | 0 mm | - | - | - |
| 1777831359 | 26.11° C | 52% | 1023.2 hPa | 0 mm | - | - | - |
| 1777830759 | 26.11° C | 51% | 1023.2 hPa | 0 mm | - | - | - |
| 1777830159 | 26.11° C | 53% | 1023.3 hPa | 0 mm | - | - | - |
| 1777829559 | 25.56° C | 56% | 1023.3 hPa | 0 mm | - | - | - |
| 1777828958 | 25.56° C | 58% | 1023.5 hPa | 0 mm | - | - | - |
| 1777828359 | 25.56° C | 56% | 1023.6 hPa | 0 mm | - | - | - |
| 1777827763 | 25.56° C | 60% | 1023.7 hPa | 0 mm | - | - | - |
| 1777827159 | 25.56° C | 62% | 1023.7 hPa | 0 mm | - | - | - |
| 1777826559 | 25° C | 62% | 1023.9 hPa | 0 mm | - | - | - |
| 1777825958 | 25° C | 64% | 1023.9 hPa | 0 mm | - | - | - |
| 1777825358 | 24.44° C | 65% | 1023.8 hPa | 0 mm | - | - | - |
| 1777824759 | 24.44° C | 65% | 1023.9 hPa | 0 mm | - | - | - |
| 1777824158 | 24.44° C | 65% | 1023.8 hPa | 0 mm | - | - | - |
| 1777823559 | 24.44° C | 64% | 1023.8 hPa | 0 mm | - | - | - |
| 1777822958 | 24.44° C | 64% | 1023.9 hPa | 0 mm | - | - | - |
| 1777822359 | 23.89° C | 65% | 1023.8 hPa | 0 mm | - | - | - |
| 1777821759 | 23.33° C | 68% | 1023.8 hPa | 0 mm | - | - | - |
| 1777821159 | 23.33° C | 65% | 1023.8 hPa | 0 mm | - | - | - |
| 1777820559 | 23.33° C | 68% | 1023.7 hPa | 0 mm | - | - | - |
| 1777819958 | 22.78° C | 74% | 1023.5 hPa | 0 mm | - | - | - |
| 1777819359 | 22.78° C | 77% | 1023.5 hPa | 0 mm | - | - | - |
* Rain latest hour (hover to see other rain measurements)
** Current wind speed in m/s (hover to see current wind gust speed)